M45 Starhopper Observatory, Sfantu Gheorghe. Observer F. Ursache. 0.41-m
f/7.5 reflector + CMO.
T05 ATLAS-HKO, Haleakala. Observers L. Denneau, R. Siverd, J. Tonry, H.
Weiland. Measurers L. Denneau, N. Erasmus, A. Fitzsimmons, A. Lawrence,
J. Robinson, R. Siverd, J. Tonry, H. Weiland. 0.5-m Reflector + CCD.
V06 Catalina Sky Survey-Kuiper. Observer J. B. Fazekas. Measurers E. J.
Christensen, D. Fay, J. B. Fazekas, D. C. Fuls, A. R. Gibbs, A. D. Grauer,
H. Groeller, J. K. Hogan, R. A. Kowalski, S. M. Larson, G. J. Leonard, D.
Rankin, R. L. Seaman, A. Serrano, F. C. Shelly, K. W. Wierzchos. 1.55-m
reflector + 1K CCD.
W68 ATLAS Chile, Rio Hurtado. Observers L. Denneau, R. Siverd, J. Tonry, H.
Weiland. Measurers L. Denneau, N. Erasmus, A. Fitzsimmons, A. Lawrence,
J. Robinson, R. Siverd, J. Tonry, H. Weiland. 0.5-m Reflector + CCD.
Orbital elements:
2023 RS1 Earth MOID = 0.0072 AU
Epoch 2023 Sept. 13.0 TT = JDT 2460200.5 Veres
M 39.98483 (2000.0) P Q
n 0.81918291 Peri. 314.00244 +0.49660536 +0.86508924
a 1.1312245 Node 345.29685 -0.69507839 +0.34754993
e 0.1351374 Incl. 16.18259 -0.51985492 +0.36170381
P 1.20 H 24.06 G 0.15 U 6
Residuals in seconds of arc
230907 W68 0.3+ 0.5+ 230907 958 0.3+ 0.4- 230908 C95 0.1- 0.2+
230907 W68 0.0 0.1+ 230907 L04 0.1- 0.2- 230908 C95 0.6- 0.2-
230907 W68 0.2- 0.6+ 230907 958 0.4+ 0.7- 230908 C95 0.0 0.3-
230907 W68 2.6- 4.2+ 230907 958 0.2- 0.4- 230908 C95 0.4- 0.2-
230907 V06 0.1+ 0.4- 230908 L65 0.3+ 0.5- 230908 C95 0.4- 0.1-
230907 V06 0.3- 0.0 230908 L65 0.4+ 0.5- 230908 654 0.3+ 0.2-
230907 V06 0.1- 0.3- 230908 L65 0.5+ 0.5- 230908 654 0.3+ 0.2-
230907 M44 0.5+ 0.2+ 230908 204 0.1- 0.2+ 230908 654 0.2+ 0.2-
230907 M44 0.1+ 0.2- 230908 204 0.0 0.1+ 230908 654 0.1+ 0.2-
230907 M44 0.1+ 0.1+ 230908 204 0.1- 0.1+ 230908 718 0.6- 0.8+
230907 G34 0.4- 0.7+ 230908 204 0.1- 0.2+ 230908 718 0.2+ 0.1+
230907 113 0.5- 0.5+ 230908 204 0.1- 0.2+ 230908 718 0.0 0.4+
230907 G34 0.5- 1.3+ 230908 M45 0.4- 0.5+ 230908 718 0.2+ 0.1-
230907 113 0.3- 0.6+ 230908 M45 0.4- 0.3+ 230908 T05 0.2- 0.2+
230907 113 0.1- 0.1- 230908 M45 1.0- 0.6+ 230908 T05 0.4- 0.5+
230907 113 0.2- 0.4+ 230908 C95 0.1- 0.1- 230908 T05 0.0 0.3+
230907 G02 0.2+ 0.5+ 230908 C95 0.1+ 0.3- 230908 T05 0.2- 0.2+
230907 B72 0.0 0.1- 230908 K74 0.0 0.2- 230908 L18 0.2- 1.0-
230907 B72 0.0 0.1+ 230908 K74 0.1+ 0.2- 230908 L18 1.0- 0.6+
230907 B72 0.2+ 0.1+ 230908 L01 0.6- 0.1- 230908 L18 0.6- 0.1+
230907 G02 0.2- 0.5- 230908 C95 0.2+ 0.2- 230908 246 0.1+ 0.4-
230907 C40 0.1+ 0.1- 230908 K74 0.1- 0.3- 230908 246 0.4+ 0.2+
230907 C40 0.0 0.1+ 230908 L01 0.3- 0.3- 230908 246 0.2+ 0.0
230907 C40 0.2- 0.2+ 230908 K74 0.0 0.3- 230908 246 0.2- 0.1+
230907 033 0.1- 0.1+ 230908 L01 0.8- 0.1- 230908 246 0.5+ 0.2+
230907 033 0.2+ 0.3- 230908 L01 0.7- 0.4- 230908 246 0.0 0.3+
230907 033 0.0 0.1- 230908 L01 0.4- 0.4- 230908 246 0.4+ 0.1+
230907 595 0.2- 0.6- 230908 I93 0.3- 0.1+ 230908 L47 0.1- 0.3-
230907 L04 0.1- 0.4+ 230908 I93 0.3- 0.1+ 230908 L47 0.3+ 0.4-
230907 C40 0.1- 0.0 230908 I93 0.3- 0.0 230908 L47 0.4+ 0.1-
230907 595 0.0 0.0 230908 I93 0.4- 0.0 230908 G34 0.1+ 0.6+
230907 595 0.3+ 0.5- 230908 I93 0.1- 0.1+ 230908 G34 0.1- 0.2+
230907 C40 0.1- 0.2- 230908 033 0.3- 0.0 230908 G34 0.1- 0.1+
230907 L04 0.1+ 0.2- 230908 033 0.1- 0.2- 230908 G34 0.5- 0.5+
230907 C40 0.3- 0.2+ 230908 033 0.1- 0.1-
Ephemeris:
2023 RS1 a,e,i = 1.13, 0.14, 16 q = 0.9784
Date TT R. A. (2000) Decl. Delta r Elong. Phase V
2023 08 09 07 45 20.4 -55 01 16 0.1476 0.9823 73.5 98.2 23.4
...
2023 08 24 07 01 42.3 -52 37 04 0.07508 0.9951 75.5 100.3 22.1
...
2023 09 01 05 54 10.7 -43 04 44 0.03612 1.0053 82.4 95.5 20.3
...
2023 09 07 03 28 32.5 +06 53 19 0.01648 1.0142 111.8 67.3 17.5
2023 09 08 02 50 09.3 +22 11 29 0.01700 1.0158 117.9 61.2 17.4
2023 09 09 02 09 44.7 +34 52 03 0.01900 1.0174 121.1 58.0 17.6
...
2023 09 15 23 05 58.3 +58 03 56 0.04399 1.0276 118.4 59.4 19.5
...
2023 09 23 21 45 58.8 +59 01 11 0.08391 1.0424 115.4 60.5 20.9
...
2023 10 08 21 16 12.6 +57 02 01 0.1590 1.0730 113.6 58.6 22.3
M. P. C. Staff (C) Copyright 2023 MPC M.P.E.C. 2023-R64
More information about the Iaude
mailing list